Latest Weather Observations for Moruya Airport

IDN60801

Issued at 7:15 pm EDT Sunday 1 March 2015 (issued every 30 minutes, with the page automatically refreshed every 10 minutes)

About weather observations | Map of weather stations | Latest weather observations for NSW | Other Formats
Station Details ID: 069148 Name: MORUYA AIRPORT AWS Lat: -35.90 Lon: 150.14 Height: 4.0 m
Data from the previous 72 hours. | See also: Recent months for locations in New South Wales
Date/Time
EDT
Temp
°C
App
Temp
°C
Dew
Point
Rel
Hum
%
Delta-T
°C
Wind Press
QNH
hPa
Press
MSL
hPa
Rain
since 9 am
mm
Dir
 
Spd
km/h
Gust
km/h
Spd
kts
Gust
kts
01/07:00pm 19.9 17.4 14.0 69 3.4 S 20 28 11 15 1012.9 1012.8 5.4
01/06:30pm 20.2 18.5 15.8 76 2.6 S 19 26 10 14 1012.0 1011.9 5.4
01/06:00pm 19.8 19.4 16.3 80 2.1 S 13 19 7 10 1011.3 1011.2 5.4
01/05:30pm 19.7 17.5 16.0 79 2.2 S 22 33 12 18 1011.0 1010.9 5.4
01/05:00pm 19.4 17.8 16.1 81 2.0 SSW 19 26 10 14 1010.3 1010.2 5.4
01/04:30pm 18.8 16.4 16.4 86 1.4 S 24 32 13 17 1010.1 1010.0 5.4
01/04:00pm 18.8 16.2 16.8 88 1.2 S 26 43 14 23 1009.8 1009.7 5.4
01/03:30pm 18.6 14.8 17.1 91 0.9 S 33 43 18 23 1009.0 1008.9 5.4
01/03:00pm 18.3 15.9 18.3 100 0.0 S 28 41 15 22 1008.8 1008.7 5.4
01/02:45pm 18.3 15.9 18.3 100 0.0 S 28 46 15 25 1008.6 1008.5 5.4
01/02:30pm 18.0 15.9 18.0 100 0.0 S 26 41 14 22 1008.7 1008.6 5.2
01/02:29pm 18.1 16.4 18.1 100 0.0 S 24 41 13 22 1008.7 1008.6 5.2
01/02:05pm 17.9 14.6 17.9 100 0.0 S 32 46 17 25 1009.1 1009.0 3.4
01/02:00pm 18.1 15.3 18.1 100 0.0 S 30 46 16 25 1009.0 1008.9 3.0
01/01:57pm 18.3 15.9 18.3 100 0.0 S 28 46 15 25 1009.0 1008.9 2.8
01/01:40pm 19.3 18.1 19.3 100 0.0 S 24 35 13 19 1007.6 1007.5 2.4
01/01:30pm 20.9 18.8 19.0 89 1.2 S 28 41 15 22 1008.6 1008.5 0.0
01/01:06pm 22.7 21.0 19.9 84 1.8 S 28 50 15 27 1007.6 1007.5 0.0
01/01:00pm 22.7 21.0 18.9 79 2.4 SSE 26 39 14 21 1007.5 1007.4 0.0
01/12:30pm 24.8 23.1 19.8 74 3.2 SSE 28 41 15 22 1007.4 1007.3 0.0
01/12:00pm 25.0 22.4 19.8 73 3.4 S 33 46 18 25 1007.3 1007.2 0.0
01/11:30am 25.0 24.1 19.1 70 3.8 S 22 32 12 17 1006.5 1006.4 0.0
01/11:00am 23.7 24.4 20.4 82 2.1 SSW 17 24 9 13 1006.1 1006.0 0.0
01/10:30am 23.2 24.6 20.3 84 1.9 SW 13 19 7 10 1005.7 1005.6 0.0
01/10:00am 23.2 25.0 20.3 84 1.9 WSW 11 15 6 8 1005.1 1005.0 0.0
01/09:30am 22.8 25.1 20.7 88 1.4 SW 9 13 5 7 1005.0 1004.9 0.0
01/09:00am 23.1 24.8 20.1 83 1.9 SW 11 19 6 10 1004.9 1004.8 0.0
01/08:30am 23.0 25.2 20.5 86 1.6 WSW 9 13 5 7 1004.8 1004.7 0.0
01/08:03am 21.4 24.3 21.1 98 0.2 SW 7 11 4 6 1004.7 1004.6 0.0
01/08:00am 21.0 23.6 20.5 97 0.3 WSW 7 11 4 6 1004.8 1004.7 0.0
01/07:44am 21.0 23.5 21.0 100 0.0 WSW 9 15 5 8 1005.0 1004.9 0.0
01/07:30am 20.6 21.8 20.6 100 0.0 WSW 15 22 8 12 1004.8 1004.7 0.0
01/07:00am 19.7 20.0 19.7 100 0.0 SSW 17 26 9 14 1004.0 1003.9 0.0
01/06:49am 19.1 19.9 19.1 100 0.0 SW 13 20 7 11 1003.7 1003.6 0.0
01/06:30am 17.8 20.1 17.8 100 0.0 WNW 2 9 1 5 1002.8 1002.7 0.0
01/05:30am 17.7 20.4 17.7 100 0.0 CALM 0 6 0 3 1001.8 1001.7 0.0
01/05:00am 18.0 20.4 18.0 100 0.0 N 2 7 1 4 1001.9 1001.8 0.0
01/04:30am 18.7 21.8 18.7 100 0.0 CALM 0 0 0 0 1002.2 1002.1 0.0
01/04:00am 19.4 21.5 19.4 100 0.0 NNE 7 9 4 5 1002.3 1002.2 0.0
01/03:56am 19.5 21.7 19.5 100 0.0 NNE 7 7 4 4 1002.3 1002.2 0.0
01/03:47am 19.6 21.4 19.6 100 0.0 NNE 9 9 5 5 1002.4 1002.3 0.0
01/03:30am 18.8 20.6 18.8 100 0.0 NNW 7 11 4 6 1002.7 1002.6 0.0
01/03:00am 18.5 21.5 18.5 100 0.0 CALM 0 0 0 0 1002.9 1002.8 0.0
01/02:30am 18.4 21.4 18.4 100 0.0 CALM 0 0 0 0 1003.2 1003.1 0.0
01/02:00am 18.6 21.7 18.6 100 0.0 CALM 0 0 0 0 1003.7 1003.6 0.0
01/01:30am 18.8 22.0 18.8 100 0.0 CALM 0 0 0 0 1004.1 1004.0 0.0
01/01:00am 18.6 21.7 18.6 100 0.0 CALM 0 0 0 0 1004.4 1004.3 0.0
01/12:30am 18.6 21.7 18.6 100 0.0 CALM 0 0 0 0 1004.8 1004.7 0.0
01/12:15am 18.8 22.0 18.8 100 0.0 CALM 0 0 0 0 1004.9 1004.8 0.0
01/12:14am 18.8 22.0 18.8 100 0.0 CALM 0 0 0 0 1004.9 1004.8 0.0
01/12:00am 19.0 22.3 19.0 100 0.0 CALM 0 0 0 0 1005.0 1004.9 0.0
 
Date/Time
EDT
Temp
°C
App
Temp
°C
Dew
Point
Rel
Hum
%
Delta-T
°C
Wind Press
QNH
hPa
Press
MSL
hPa
Rain
since 9 am
mm
Dir
 
Spd
km/h
Gust
km/h
Spd
kts
Gust
kts
28/11:54pm 19.0 22.3 19.0 100 0.0 CALM 0 0 0 0 1005.0 1004.9 0.0
28/11:30pm 19.4 22.8 19.4 100 0.0 CALM 0 0 0 0 1005.1 1005.0 0.0
28/11:00pm 19.6 23.1 19.6 100 0.0 CALM 0 0 0 0 1005.5 1005.4 0.0
28/10:34pm 19.4 22.8 19.4 100 0.0 CALM 0 0 0 0 1005.8 1005.7 0.0
28/10:30pm 19.2 22.5 19.2 100 0.0 CALM 0 0 0 0 1005.8 1005.7 0.0
28/10:18pm 19.5 23.0 19.5 100 0.0 CALM 0 0 0 0 1005.8 1005.7 0.0
28/10:00pm 19.5 23.0 19.5 100 0.0 CALM 0 0 0 0 1005.9 1005.8 0.0
28/09:30pm 20.0 23.7 20.0 100 0.0 CALM 0 0 0 0 1006.1 1006.0 0.0
28/09:00pm 20.8 24.8 20.5 98 0.2 CALM 0 0 0 0 1006.1 1006.0 0.0
28/08:36pm 21.4 24.7 20.7 96 0.5 NE 4 6 2 3 1006.0 1005.9 0.0
28/08:30pm 21.5 24.4 20.7 95 0.5 NE 6 7 3 4 1005.9 1005.8 0.0
28/08:24pm 21.6 24.4 20.8 95 0.5 NE 7 7 4 4 1005.8 1005.7 0.0
28/08:09pm 22.0 24.4 20.8 93 0.8 NE 9 13 5 7 1005.7 1005.6 0.0
28/08:00pm 22.6 24.8 21.2 92 0.9 NE 11 17 6 9 1005.6 1005.5 0.0
28/07:51pm 22.5 24.3 21.1 92 0.9 NE 13 19 7 10 1005.5 1005.4 0.0
28/07:30pm 22.8 23.8 21.1 90 1.1 NE 17 20 9 11 1005.4 1005.3 0.0
28/07:00pm 23.0 23.6 21.1 89 1.2 NE 19 26 10 14 1005.1 1005.0 0.0
28/06:30pm 23.9 24.6 21.2 85 1.8 NE 19 22 10 12 1005.0 1004.9 0.0
28/06:00pm 24.7 26.0 21.6 83 2.1 NE 17 24 9 13 1005.0 1004.9 0.0
28/05:30pm 25.0 24.7 21.1 79 2.6 NNE 24 32 13 17 1004.8 1004.7 0.0
28/05:00pm 25.1 24.9 21.2 79 2.6 NNE 24 30 13 16 1005.2 1005.1 0.0
28/04:30pm 25.1 25.1 21.6 81 2.3 NE 24 32 13 17 1005.4 1005.3 0.0
28/04:00pm 25.1 24.5 21.2 79 2.6 NNE 26 35 14 19 1005.4 1005.3 0.0
28/03:30pm 25.3 25.0 21.8 81 2.3 NE 26 33 14 18 1005.9 1005.8 0.0
28/03:00pm 25.2 25.4 22.1 83 2.1 NE 24 33 13 18 1006.3 1006.2 0.0
28/02:30pm 25.1 25.2 21.8 82 2.2 NE 24 30 13 16 1006.8 1006.7 0.0
28/02:00pm 25.2 26.0 21.7 81 2.3 NE 20 26 11 14 1007.2 1007.1 0.0
28/01:30pm 24.6 25.2 21.1 81 2.3 NE 19 22 10 12 1007.7 1007.6 0.0
28/01:00pm 24.1 25.1 21.0 83 2.0 NE 17 20 9 11 1008.2 1008.1 0.0
28/12:30pm 24.1 25.8 21.6 86 1.7 ENE 15 19 8 10 1008.6 1008.5 0.0
28/12:00pm 23.6 26.3 21.3 87 1.5 NE 9 13 5 7 1009.1 1009.0 0.0
28/11:46am 22.5 24.7 21.1 92 0.9 NE 11 13 6 7 1009.3 1009.2 0.0
28/11:30am 21.7 24.0 20.7 94 0.6 NNE 9 13 5 7 1009.5 1009.4 0.0
28/11:27am 21.6 23.9 20.6 94 0.6 NNE 9 13 5 7 1009.4 1009.3 0.0
28/11:00am 21.5 22.9 20.3 93 0.8 ENE 13 17 7 9 1009.1 1009.0 0.0
28/10:30am 22.4 25.2 20.9 91 1.0 ENE 7 11 4 6 1009.7 1009.6 0.0
28/10:00am 21.4 23.6 20.4 94 0.6 ENE 9 11 5 6 1010.0 1009.9 0.0
28/09:36am 21.6 24.4 20.9 96 0.5 ENE 7 9 4 5 1010.0 1009.9 0.0
28/09:30am 21.1 23.9 20.8 98 0.2 ENE 7 9 4 5 1010.1 1010.0 0.0
28/09:20am 21.1 24.2 21.1 100 0.0 ENE 6 9 3 5 1010.0 1009.9 0.0
28/09:00am 20.5 24.5 20.5 100 0.0 CALM 0 0 0 0 1010.1 1010.0 0.0
28/08:51am 19.7 23.3 19.7 100 0.0 CALM 0 0 0 0 1010.0 1009.9 0.0
28/08:30am 19.2 22.5 19.2 100 0.0 CALM 0 0 0 0 1009.9 1009.8 0.0
28/08:00am 18.6 21.3 18.6 100 0.0 NNE 2 6 1 3 1009.7 1009.6 0.0
28/07:52am 18.7 21.8 18.7 100 0.0 CALM 0 0 0 0 1009.6 1009.5 0.0
28/07:37am 18.3 21.2 18.3 100 0.0 CALM 0 0 0 0 1009.7 1009.6 0.0
28/07:30am 18.2 21.1 18.2 100 0.0 CALM 0 0 0 0 1009.7 1009.6 0.0
28/07:00am 17.7 20.4 17.7 100 0.0 CALM 0 0 0 0 1009.4 1009.3 0.0
28/06:30am 17.8 20.5 17.8 100 0.0 CALM 0 0 0 0 1009.1 1009.0 0.0
28/06:21am 17.9 20.7 17.9 100 0.0 CALM 0 6 0 3 1009.0 1008.9 0.0
28/06:00am 17.9 20.7 17.9 100 0.0 CALM 0 6 0 3 1009.0 1008.9 0.0
28/05:30am 17.6 20.2 17.6 100 0.0 CALM 0 0 0 0 1008.9 1008.8 0.0
28/05:00am 17.5 20.1 17.5 100 0.0 CALM 0 0 0 0 1008.8 1008.7 0.0
28/04:30am 17.4 20.0 17.4 100 0.0 CALM 0 0 0 0 1009.0 1008.9 0.0
28/04:00am 17.5 20.1 17.5 100 0.0 CALM 0 0 0 0 1009.2 1009.1 0.0
28/03:30am 17.5 20.1 17.5 100 0.0 CALM 0 0 0 0 1009.3 1009.2 0.0
28/03:00am 17.5 20.1 17.5 100 0.0 CALM 0 0 0 0 1009.5 1009.4 0.0
28/02:30am 17.8 20.5 17.8 100 0.0 CALM 0 0 0 0 1009.4 1009.3 0.0
28/02:02am 18.1 21.0 18.1 100 0.0 CALM 0 0 0 0 1009.5 1009.4 0.0
28/02:00am 18.1 21.0 18.1 100 0.0 CALM 0 0 0 0 1009.5 1009.4 0.0
28/01:50am 18.1 21.0 18.1 100 0.0 CALM 0 0 0 0 1009.6 1009.5 0.0
28/01:33am 18.1 21.0 18.1 100 0.0 CALM 0 0 0 0 1009.8 1009.7 0.0
28/01:30am 18.2 21.1 18.2 100 0.0 CALM 0 0 0 0 1009.8 1009.7 0.0
28/01:00am 18.7 21.8 18.7 100 0.0 CALM 0 0 0 0 1009.9 1009.8 0.0
28/12:30am 19.0 22.3 19.0 100 0.0 CALM 0 0 0 0 1009.9 1009.8 0.0
28/12:00am 19.5 22.6 19.5 100 0.0 WNW 2 6 1 3 1010.2 1010.1 0.0
 
Date/Time
EDT
Temp
°C
App
Temp
°C
Dew
Point
Rel
Hum
%
Delta-T
°C
Wind Press
QNH
hPa
Press
MSL
hPa
Rain
since 9 am
mm
Dir
 
Spd
km/h
Gust
km/h
Spd
kts
Gust
kts
27/11:30pm 19.2 21.4 19.2 100 0.0 WNW 6 7 3 4 1010.7 1010.6 0.0
27/11:00pm 19.6 22.0 19.6 100 0.0 NW 6 9 3 5 1010.5 1010.4 0.0
27/10:30pm 20.0 23.7 20.0 100 0.0 CALM 0 0 0 0 1010.7 1010.6 0.0
27/10:00pm 20.5 24.5 20.5 100 0.0 CALM 0 0 0 0 1010.7 1010.6 0.0
27/09:30pm 20.7 23.4 20.7 100 0.0 SW 7 9 4 5 1010.7 1010.6 0.0
27/09:00pm 20.1 23.7 19.8 98 0.2 CALM 0 0 0 0 1010.1 1010.0 0.0
27/08:30pm 20.9 23.7 19.7 93 0.8 N 4 7 2 4 1009.8 1009.7 0.0
27/08:00pm 21.4 23.4 20.0 92 0.9 NNE 9 13 5 7 1009.3 1009.2 0.0
27/07:30pm 22.4 23.2 19.9 86 1.6 NNE 15 19 8 10 1008.8 1008.7 0.0
27/07:00pm 23.0 23.3 19.6 81 2.2 NNE 17 20 9 11 1008.6 1008.5 0.0
27/06:30pm 23.6 23.9 19.7 79 2.5 NNE 17 20 9 11 1008.3 1008.2 0.0
27/06:00pm 23.7 23.6 20.0 80 2.4 NE 20 28 11 15 1008.0 1007.9 0.0
27/05:30pm 24.0 23.6 19.3 75 3.0 NE 20 26 11 14 1007.9 1007.8 0.0
27/05:00pm 24.3 23.9 19.4 74 3.1 NE 20 28 11 15 1008.0 1007.9 0.0
27/04:30pm 24.2 24.1 19.9 77 2.8 NE 20 28 11 15 1008.0 1007.9 0.0
27/04:00pm 24.5 24.7 20.6 79 2.6 NE 20 28 11 15 1008.0 1007.9 0.0
27/03:30pm 24.3 24.5 20.2 78 2.7 NE 19 26 10 14 1008.3 1008.2 0.0
27/03:00pm 24.1 24.1 20.2 79 2.5 NE 20 28 11 15 1008.6 1008.5 0.0
27/02:30pm 24.4 24.4 20.9 81 2.3 NE 22 26 12 14 1009.2 1009.1 0.0
27/02:00pm 24.1 23.8 20.4 80 2.4 NE 22 28 12 15 1009.4 1009.3 0.0
27/01:30pm 23.9 24.6 21.2 85 1.8 ENE 19 22 10 12 1009.9 1009.8 0.0
27/01:00pm 23.8 24.2 20.7 83 2.0 ENE 19 22 10 12 1010.1 1010.0 0.0
27/12:30pm 24.0 25.1 21.3 85 1.8 ENE 17 20 9 11 1010.4 1010.3 0.0
27/12:00pm 23.6 24.3 20.5 83 2.0 NE 17 24 9 13 1010.7 1010.6 0.0
27/11:30am 22.9 23.8 20.1 84 1.8 NE 15 26 8 14 1010.9 1010.8 0.0
27/11:00am 21.9 23.9 20.0 89 1.2 ESE 9 13 5 7 1011.1 1011.0 0.0
27/10:30am 21.8 23.4 19.9 89 1.2 E 11 15 6 8 1011.2 1011.1 0.0
27/10:00am 21.7 23.3 20.0 90 1.1 E 11 13 6 7 1011.0 1010.9 0.0
27/09:30am 21.3 24.5 19.8 91 1.0 E 2 7 1 4 1010.9 1010.8 0.0
27/09:00am 20.6 24.4 20.1 97 0.3 CALM 0 0 0 0 1010.8 1010.7 0.0
27/08:40am 19.5 23.0 19.5 100 0.0 CALM 0 0 0 0 1010.7 1010.6 0.0
27/08:30am 19.0 22.3 19.0 100 0.0 CALM 0 0 0 0 1010.7 1010.6 0.0
27/08:24am 19.1 22.4 19.1 100 0.0 CALM 0 0 0 0 1010.8 1010.7 0.0
27/08:00am 18.7 21.8 18.7 100 0.0 CALM 0 0 0 0 1010.7 1010.6 0.0
27/07:45am 17.7 20.4 17.7 100 0.0 CALM 0 0 0 0 1010.6 1010.5 0.0
27/07:30am 16.4 18.6 16.4 100 0.0 CALM 0 0 0 0 1010.4 1010.3 0.0
27/07:00am 15.7 17.6 15.7 100 0.0 CALM 0 0 0 0 1010.3 1010.2 0.0
27/06:51am 16.1 18.1 16.1 100 0.0 CALM 0 0 0 0 1010.2 1010.1 0.0
27/06:30am 15.8 17.7 15.8 100 0.0 CALM 0 0 0 0 1009.8 1009.7 0.0
27/06:00am 16.3 18.4 16.3 100 0.0 CALM 0 0 0 0 1009.7 1009.6 0.0
27/05:50am 16.2 18.3 16.2 100 0.0 CALM 0 0 0 0 1009.7 1009.6 0.0
27/05:48am 16.3 18.4 16.3 100 0.0 CALM 0 0 0 0 1009.7 1009.6 0.0
27/05:30am 16.8 19.1 16.8 100 0.0 CALM 0 0 0 0 1009.6 1009.5 0.0
27/05:23am 16.9 19.3 16.9 100 0.0 CALM 0 0 0 0 1009.6 1009.5 0.0
27/05:00am 16.6 18.8 16.6 100 0.0 CALM 0 0 0 0 1009.7 1009.6 0.0
27/04:30am 16.6 18.8 16.6 100 0.0 CALM 0 0 0 0 1009.8 1009.7 0.0
27/04:24am 16.7 19.0 16.7 100 0.0 CALM 0 0 0 0 1009.8 1009.7 0.0
27/04:00am 16.8 19.1 16.8 100 0.0 CALM 0 0 0 0 1009.6 1009.5 0.0
27/03:30am 17.2 19.7 17.2 100 0.0 CALM 0 0 0 0 1009.7 1009.6 0.0
27/03:19am 17.4 20.0 17.4 100 0.0 CALM 0 0 0 0 1009.8 1009.7 0.0
27/03:00am 17.7 20.4 17.7 100 0.0 CALM 0 0 0 0 1009.8 1009.7 0.0
27/02:30am 17.9 20.7 17.9 100 0.0 CALM 0 0 0 0 1010.0 1009.9 0.0
27/02:00am 17.9 20.7 17.9 100 0.0 CALM 0 0 0 0 1010.1 1010.0 0.0
27/01:30am 18.6 21.7 18.6 100 0.0 CALM 0 0 0 0 1010.4 1010.3 0.0
27/01:00am 19.0 21.7 18.7 98 0.2 W 2 6 1 3 1010.6 1010.5 0.0
27/12:30am 19.8 23.2 19.3 97 0.3 CALM 0 0 0 0 1010.7 1010.6 0.0
27/12:00am 20.0 23.4 19.3 96 0.4 CALM 0 0 0 0 1010.8 1010.7 0.0
 
Date/Time
EDT
Temp
°C
App
Temp
°C
Dew
Point
Rel
Hum
%
Delta-T
°C
Wind Press
QNH
hPa
Press
MSL
hPa
Rain
since 9 am
mm
Dir
 
Spd
km/h
Gust
km/h
Spd
kts
Gust
kts
26/11:30pm 20.1 23.4 19.1 94 0.6 CALM 0 6 0 3 1010.8 1010.7 0.0
26/11:00pm 19.8 21.6 18.8 94 0.6 WSW 7 9 4 5 1011.0 1010.9 0.0
26/10:30pm 20.0 22.6 19.2 95 0.5 WSW 4 6 2 3 1011.0 1010.9 0.0
26/10:00pm 20.2 22.1 18.5 90 1.1 SW 6 7 3 4 1010.9 1010.8 0.0
26/09:30pm 20.5 21.6 17.9 85 1.6 SSW 9 11 5 6 1010.8 1010.7 0.0
26/09:00pm 20.8 22.1 17.6 82 2.0 S 7 9 4 5 1010.3 1010.2 0.0
26/08:30pm 21.0 21.3 17.0 78 2.4 S 11 13 6 7 1009.9 1009.8 0.0
26/08:00pm 21.2 22.0 17.4 79 2.3 SSW 9 13 5 7 1009.2 1009.1 0.0
26/07:30pm 21.8 23.5 18.4 81 2.1 SSW 7 13 4 7 1008.6 1008.5 0.0

Other Formats:

Comma delimited format used in spreadsheet applications
http://www.bom.gov.au/fwo/IDN60801/IDN60801.95937.axf

JavaScript Object Notation format (JSON) in row-major order
http://www.bom.gov.au/fwo/IDN60801/IDN60801.95937.json